| time (UTC) | temp F | wind direction | speed knots | gust knots | rain 1hr in | rain 24hr in | rain mn in | humidity % | barometer mb |
| 20260901011516 | 79 | 320 | 0.9 | 3.5 | 0.00 | 0.33 | 0.33 | 86 | 1010.1 |
| 20260901010012 | 80 | 318 | 0.0 | 4.3 | 0.00 | 0.33 | 0.33 | 86 | 1009.9 |
| 20260901004512 | 80 | 360 | 0.0 | 1.7 | 0.00 | 0.33 | 0.33 | 86 | 1009.7 |
| 20260901003012 | 80 | 316 | 0.0 | 3.5 | 0.00 | 0.33 | 0.33 | 86 | 1009.6 |
| 20260901001511 | 80 | 306 | 0.9 | 3.5 | 0.00 | 0.33 | 0.33 | 86 | 1009.7 |
| 20260901000010 | 79 | 303 | 1.7 | 5.2 | 0.00 | 0.33 | 0.33 | 86 | 1009.8 |
| 20260831234511 | 79 | 355 | 0.0 | 0.9 | 0.00 | 0.33 | 0.33 | 87 | 1009.7 |
| 20260831233009 | 78 | 348 | 0.9 | 5.2 | 0.00 | 0.33 | 0.33 | 87 | 1009.5 |
| 20260831231508 | 77 | 355 | 0.9 | 4.3 | 0.00 | 0.33 | 0.33 | 87 | 1009.7 |
| 20260831230010 | 77 | 308 | 0.9 | 7.8 | 0.00 | 0.33 | 0.33 | 87 | 1009.8 |
| 20260831224506 | 76 | 326 | 0.0 | 4.3 | 0.00 | 0.33 | 0.33 | 87 | 1010.2 |
| 20260831223006 | 76 | 9 | 0.9 | 7.8 | 0.00 | 0.33 | 0.33 | 87 | 1010.3 |
| 20260831221505 | 76 | 24 | 1.7 | 7.0 | 0.01 | 0.33 | 0.33 | 87 | 1010.3 |
| 20260831220007 | 76 | 360 | 0.9 | 5.2 | 0.06 | 0.33 | 0.33 | 87 | 1010.5 |
| 20260831214503 | 76 | 41 | 0.0 | 5.2 | 0.25 | 0.33 | 0.33 | 87 | 1010.8 |
| 20260831213002 | 76 | 22 | 0.9 | 5.2 | 0.33 | 0.33 | 0.33 | 87 | 1011.2 |
| 20260831211503 | 76 | 304 | 1.7 | 6.1 | 0.32 | 0.32 | 0.32 | 86 | 1011.5 |
| 20260831210001 | 76 | 317 | 2.6 | 10.4 | 0.26 | 0.26 | 0.26 | 86 | 1012.1 |
| 20260831204558 | 77 | 355 | 2.6 | 13.9 | 0.08 | 0.08 | 0.08 | 83 | 1012.4 |
| 20260831203054 | 84 | 34 | 6.1 | 18.2 | 0.00 | 0.00 | 0.00 | 74 | 1012.0 |
| 20260831201553 | 94 | 57 | 5.2 | 11.3 | 0.00 | 0.00 | 0.00 | 62 | 1011.8 |
| 20260831200051 | 94 | 103 | 1.7 | 8.7 | 0.00 | 0.00 | 0.00 | 66 | 1011.0 |
| 20260831194625 | 93 | 149 | 2.6 | 7.0 | 0.00 | 0.00 | 0.00 | 67 | 1011.4 |
| 20260831193048 | 94 | 97 | 1.7 | 7.0 | 0.00 | 0.00 | 0.00 | 67 | 1011.7 |
| 20260831191548 | 93 | 153 | 2.6 | 6.1 | 0.00 | 0.00 | 0.00 | 65 | 1011.8 |
| 20260831190059 | 92 | 123 | 1.7 | 7.0 | 0.00 | 0.00 | 0.00 | 65 | 1011.8 |
| 20260831184541 | 91 | 173 | 1.7 | 5.2 | 0.00 | 0.00 | 0.00 | 63 | 1012.2 |
| 20260831183036 | 88 | 95 | 0.9 | 2.6 | 0.00 | 0.00 | 0.00 | 64 | 1012.5 |
| 20260831181543 | 85 | 201 | 0.0 | 1.7 | 0.00 | 0.00 | 0.00 | 69 | 1012.6 |
| 20260831180035 | 83 | 200 | 0.0 | 2.6 | 0.00 | 0.00 | 0.00 | 71 | 1012.7 |
| 20260831174534 | 82 | 282 | 0.0 | 1.7 | 0.00 | 0.00 | 0.00 | 71 | 1012.6 |
| 20260831173037 | 81 | 222 | 0.9 | 2.6 | 0.00 | 0.00 | 0.00 | 72 | 1012.7 |
| 20260831171538 | 82 | 47 | 0.0 | 5.2 | 0.00 | 0.00 | 0.00 | 74 | 1012.7 |
| 20260831170035 | 83 | 80 | 2.6 | 13.0 | 0.00 | 0.00 | 0.00 | 74 | 1012.9 |
| 20260831164531 | 84 | 98 | 1.7 | 10.4 | 0.00 | 0.00 | 0.00 | 69 | 1012.7 |
| 20260831163035 | 86 | 117 | 0.9 | 4.3 | 0.00 | 0.00 | 0.00 | 71 | 1012.4 |
| 20260831161528 | 88 | 9 | 0.0 | 2.6 | 0.00 | 0.00 | 0.00 | 73 | 1012.0 |
| 20260831160027 | 88 | 9 | 0.0 | 0.0 | 0.00 | 0.00 | 0.00 | 72 | 1012.1 |
| 20260831154527 | 88 | 9 | 0.0 | 0.0 | 0.00 | 0.00 | 0.00 | 71 | 1012.2 |
| 20260831153026 | 87 | 9 | 0.0 | 0.9 | 0.00 | 0.00 | 0.00 | 71 | 1012.1 |
| 20260831151521 | 86 | 9 | 0.0 | 0.0 | 0.00 | 0.00 | 0.00 | 74 | 1012.0 |
| 20260831150017 | 85 | 9 | 0.0 | 0.0 | 0.00 | 0.00 | 0.00 | 74 | 1012.0 |
| 20260831144513 | 84 | 9 | 0.0 | 0.0 | 0.00 | 0.00 | 0.00 | 77 | 1011.8 |
| 20260831143019 | 83 | 9 | 0.0 | 0.0 | 0.00 | 0.00 | 0.00 | 77 | 1011.7 |
| 20260831141518 | 82 | 10 | 0.0 | 1.7 | 0.00 | 0.00 | 0.00 | 78 | 1011.5 |
| 20260831140006 | 81 | 9 | 0.0 | 0.9 | 0.00 | 0.00 | 0.00 | 78 | 1011.4 |
| 20260831134503 | 81 | 9 | 0.0 | 0.0 | 0.00 | 0.00 | 0.00 | 78 | 1011.2 |
| 20260831133004 | 81 | 9 | 0.0 | 1.7 | 0.00 | 0.00 | 0.00 | 77 | 1011.0 |
| 20260831131609 | 81 | 85 | 0.0 | 2.6 | 0.00 | 0.00 | 0.00 | 77 | 1010.8 |
| 20260831130059 | 81 | 323 | 0.9 | 2.6 | 0.00 | 0.00 | 0.00 | 78 | 1010.8 |
| 20260831124609 | 81 | 342 | 0.0 | 1.7 | 0.00 | 0.00 | 0.00 | 78 | 1010.6 |
| 20260831123055 | 80 | 342 | 0.0 | 1.7 | 0.00 | 0.00 | 0.00 | 78 | 1010.5 |
| 20260831121554 | 81 | 355 | 0.0 | 2.6 | 0.00 | 0.00 | 0.00 | 78 | 1010.3 |
| 20260831120052 | 81 | 322 | 0.0 | 1.7 | 0.00 | 0.00 | 0.00 | 78 | 1010.3 |
| 20260831114551 | 81 | 321 | 0.0 | 1.7 | 0.00 | 0.00 | 0.00 | 77 | 1010.3 |
| 20260831113053 | 81 | 321 | 0.0 | 1.7 | 0.00 | 0.00 | 0.00 | 76 | 1010.4 |
| 20260831111547 | 81 | 313 | 1.7 | 2.6 | 0.00 | 0.00 | 0.00 | 76 | 1010.3 |
| 20260831104540 | 81 | 329 | 0.0 | 1.7 | 0.00 | 0.00 | 0.00 | 75 | 1010.0 |
| 20260831103039 | 81 | 312 | 0.0 | 3.5 | 0.00 | 0.00 | 0.00 | 75 | 1009.9 |
| 20260831101549 | 81 | 315 | 0.0 | 4.3 | 0.00 | 0.00 | 0.00 | 75 | 1009.9 |
| 20260831100045 | 81 | 319 | 0.0 | 0.9 | 0.00 | 0.00 | 0.00 | 75 | 1010.0 |
| 20260831094540 | 81 | 319 | 0.0 | 0.9 | 0.00 | 0.00 | 0.00 | 75 | 1010.1 |
| 20260831093035 | 81 | 319 | 0.0 | 0.9 | 0.00 | 0.00 | 0.00 | 75 | 1010.1 |
| 20260831091533 | 81 | 319 | 0.0 | 0.9 | 0.00 | 0.00 | 0.00 | 75 | 1010.4 |
| 20260831090030 | 82 | 319 | 0.0 | 0.9 | 0.00 | 0.00 | 0.00 | 75 | 1010.5 |
| 20260831084529 | 82 | 319 | 0.0 | 1.7 | 0.00 | 0.00 | 0.00 | 75 | 1010.7 |
| 20260831083027 | 82 | 311 | 0.0 | 0.9 | 0.00 | 0.00 | 0.00 | 75 | 1010.8 |
| 20260831081527 | 82 | 311 | 0.0 | 3.5 | 0.00 | 0.00 | 0.00 | 76 | 1010.8 |
| 20260831080026 | 82 | 338 | 0.0 | 2.6 | 0.00 | 0.00 | 0.00 | 76 | 1010.8 |
| 20260831074527 | 82 | 341 | 0.0 | 0.9 | 0.00 | 0.00 | 0.00 | 76 | 1010.7 |
| 20260831073028 | 82 | 341 | 0.0 | 1.7 | 0.00 | 0.00 | 0.00 | 75 | 1010.6 |
| 20260831071522 | 83 | 28 | 0.0 | 0.9 | 0.00 | 0.00 | 0.00 | 75 | 1010.7 |
| 20260831070028 | 83 | 28 | 0.0 | 1.7 | 0.00 | 0.00 | 0.00 | 74 | 1010.8 |
| 20260831064519 | 83 | 28 | 0.0 | 0.9 | 0.00 | 0.00 | 0.00 | 73 | 1010.7 |
| 20260831063018 | 84 | 28 | 0.0 | 0.9 | 0.00 | 0.00 | 0.00 | 73 | 1010.8 |
| 20260831061518 | 84 | 28 | 0.0 | 1.7 | 0.00 | 0.00 | 0.00 | 72 | 1010.9 |
| 20260831060017 | 84 | 28 | 0.0 | 1.7 | 0.00 | 0.00 | 0.00 | 72 | 1010.9 |
| 20260831054517 | 84 | 28 | 0.0 | 0.9 | 0.00 | 0.00 | 0.00 | 72 | 1011.0 |
| 20260831053017 | 84 | 28 | 0.0 | 0.9 | 0.00 | 0.00 | 0.00 | 73 | 1011.1 |
| 20260831051524 | 84 | 28 | 0.0 | 0.0 | 0.00 | 0.00 | 0.00 | 73 | 1010.9 |
| 20260831050016 | 84 | 28 | 0.0 | 0.0 | 0.00 | 0.00 | 0.00 | 73 | 1010.9 |
| 20260831044516 | 85 | 28 | 0.0 | 0.9 | 0.00 | 0.00 | 0.00 | 73 | 1010.8 |
| 20260831043015 | 85 | 28 | 0.0 | 0.9 | 0.00 | 0.00 | 0.00 | 73 | 1010.8 |
| 20260831041523 | 85 | 28 | 0.0 | 0.9 | 0.00 | 0.00 | 0.00 | 73 | 1010.7 |
| 20260831040014 | 86 | 28 | 0.0 | 1.7 | 0.00 | 0.00 | 0.00 | 72 | 1010.4 |
| 20260831034516 | 86 | 28 | 0.0 | 2.6 | 0.00 | 0.00 | 0.00 | 71 | 1010.3 |
| 20260831033014 | 86 | 40 | 0.0 | 1.7 | 0.00 | 0.00 | 0.00 | 70 | 1010.0 |
| 20260831031512 | 86 | 101 | 0.0 | 0.9 | 0.00 | 0.00 | 0.00 | 69 | 1009.7 |
| 20260831030016 | 86 | 101 | 0.0 | 0.9 | 0.00 | 0.00 | 0.00 | 68 | 1009.6 |
| 20260831024512 | 87 | 106 | 0.0 | 0.9 | 0.00 | 0.00 | 0.00 | 66 | 1009.6 |
| 20260831023012 | 88 | 106 | 0.0 | 0.9 | 0.00 | 0.00 | 0.00 | 65 | 1009.4 |
| 20260831021511 | 88 | 106 | 0.0 | 0.0 | 0.00 | 0.00 | 0.00 | 63 | 1009.1 |
| 20260831020011 | 89 | 106 | 0.0 | 0.9 | 0.00 | 0.00 | 0.00 | 63 | 1009.1 |
| 20260831014510 | 90 | 106 | 0.0 | 0.9 | 0.00 | 0.00 | 0.00 | 61 | 1008.7 |
| 20260831013010 | 90 | 106 | 0.0 | 0.9 | 0.00 | 0.00 | 0.00 | 62 | 1008.4 |